星链-33678 (STARLINK-33678)

导读

STARLINK-33678是美国SpaceX星链星座的卫星,于2025年4月7日发射入轨,属于低轨互联网卫星星座的组成部分。星链项目旨在构建全球覆盖的卫星互联网网络,该卫星延续了星链卫星的设计,为偏远地区、海上空中等场景提供宽带接入服务,也是星链持续扩容星座网络的一颗发射卫星。

基本信息
目录编号:
63509
目录名称:
STARLINK-33678
国际标识:
2025-071S
轨道中心:
EARTH
卫星名称:
星链-33678
卫星全名:
星链-33678 (STARLINK-33678)
卫星状态:
在轨 (已飞行433 天)
发射日期:
2025-04-07 UTC
国别 :
美国 (US)
星等 :
--
轨道信息
数据来源 国际轨道数据
星历时间: 2026-06-14T05:05:49+0800
8小时前
查看轨道信息
半长轴: 6848.904km
偏心率: 0.0001532
轨道倾角: 53.161°
近地点辐角 75.689°
升交点赤经 52.622°
平近点角 284.428°
近地点: 469.717km
远地点: 471.817km
周期: 94.014分钟
每日圈数: 15.31691
详细信息
固有亮度:
5
最大亮度:
2.5
卫星平台:
Starlink V1.0
覆盖范围:
全球
运营商:
太空探索技术公司
运营商所在国:
美国
制造商(研发单位):
太空探索技术公司
制造商所在国:
美国
使用方式:
暂无
卫星简介
Starlink 计划是 SpaceX 推出的全球卫星互联网项目,通过发射低轨道卫星,为全球尤其是偏远地区提供高速、低延迟的互联网服务。自 2019 年起,Starlink 已部署数千颗卫星,旨在缩小全球数字鸿沟,推动互联网普及。该项目还为军事、航空等行业提供通信支持,带来广泛经济效益。
2D轨道图
3D轨道图
轨道高度分析图
轨道倾角分析图
轨道综合分析图
查看轨道综合分析图